User: anonymous   Login
Location: Luxembourg
(49.6117°N, 6.1300°E)
Time: 09:59:36
(UTC+01:00)
Language:

BEESAT 2 - Orbit

View from above orbital plane
View from above orbital plane
View from above satellite
View from above satellite

Ground track
Ground track

The orbit data is extracted from the following two-line orbital elements,

1 39136U 13015G   19084.92483003 +.00000564 +00000-0 +38579-4 0  9994
2 39136 064.8698 315.7136 0011603 297.9937 062.0014 15.16720589326927
Epoch (UTC): 25 March 2019 22:11:45
Eccentricity: 0.0011603
inclination: 64.8698°
perigee height: 508 km
apogee height: 524 km
right ascension of ascending node: 315.7136°
argument of perigee: 297.9937°
revolutions per day: 15.16720589
mean anomaly at epoch: 62.0014°
orbit number at epoch: 32692

The dashed part of the orbit path shows where the satellite is in the earth's shadow,  

DLR